星链-5202 (STARLINK-5202 )

导读 | 星芒AI

STARLINK-5202 是 SpaceX 星链计划中的一颗低轨通信卫星,属于第 52 批发射的星链卫星群。该卫星运行在约 550 公里的近地轨道,旨在为全球用户提供高速互联网服务。它采用先进的推进系统和激光通信技术,具备高带宽和低延迟特性,支持偏远地区的网络接入。作为星链星座的一部分,STARLINK-5202 有助于提升全球互联网覆盖范围和连接质量。

基本信息
目录编号:
54761
目录名称:
STARLINK-5202
国际标识:
2022-175D
轨道中心:
EARTH
卫星名称:
星链-5202
卫星全名:
星链-5202 (STARLINK-5202 )
卫星状态:
在轨 (已飞行1053 天)
发射日期:
2022-12-17 UTC
国别 :
美国 (US)
星等 :
--
轨道信息
数据来源 国际轨道数据 AOE轨道数据
星历时间 2025-11-04T11:36:59+0800
18小时前
查看轨道信息
2025-10-30T23:00:00+0800
5天前
查看轨道信息
半长轴 6917.878km 6917.881km
偏心率 0.0001398 0.0001112
轨道倾角 53.217° 53.215°
近地点辐角 101.959° 89.989°
升交点赤经 247.918° 268.233°
平近点角 258.156° 154.076°
近地点 538.775km 538.976km
远地点 540.711km 540.516km
周期 95.438分钟 95.438分钟
每日圈数 15.088408 15.088401
详细信息
固有亮度:
5
最大亮度:
2.5
卫星平台:
Starlink v1.5
覆盖范围:
全球
运营商:
太空探索技术公司
运营商所在国:
美国
制造商(研发单位):
太空探索技术公司
制造商所在国:
美国
使用方式:
暂无
卫星简介
星链(Starlink)计划是由太空探索技术公司(SpaceX)提出的一个巨型低轨卫星互联网星座项目,计划在2019年至2024年间在太空搭建由约1.2万颗卫星组成的“星链”网络,其中1584颗将部署在地球上空550千米处的近地轨道,并从2020年开始工作。该卫星仍在工作。
2D轨道图
3D轨道图
轨道高度分析图
轨道倾角分析图
轨道综合分析图
查看轨道综合分析图